Time,TemperatureF,DewpointF,PressureIn,WindDirection,WindDirectionDegrees,WindSpeedMPH,WindSpeedGustMPH,Humidity,HourlyPrecipIn,Conditions,Clouds,dailyrainin,SoftwareType,DateUTC
2013-02-21 05:57:00,24.6,6.3,29.47,WNW,296,3.1,3.1,45,0.00,,,0.00,VWS V14.01,2013-02-21 10:57:00,
2013-02-21 06:02:00,24.4,6.2,29.47,WNW,298,2.7,2.7,45,0.00,,,0.00,VWS V14.01,2013-02-21 11:02:00,
2013-02-21 06:07:00,24.4,6.2,29.47,WNW,290,3.6,3.6,45,0.00,,,0.00,VWS V14.01,2013-02-21 11:07:00,
2013-02-21 06:12:00,24.4,6.2,29.47,NW,305,3.6,4.9,45,0.00,,,0.00,VWS V14.01,2013-02-21 11:12:00,
2013-02-21 06:17:00,24.4,6.2,29.47,WNW,291,5.4,8.1,45,0.00,,,0.00,VWS V14.01,2013-02-21 11:17:00,
2013-02-21 06:22:00,24.4,6.2,29.50,SSE,147,2.2,3.1,45,0.00,,,0.00,VWS V14.01,2013-02-21 11:22:00,
2013-02-21 06:27:00,24.3,5.5,29.50,NNW,338,3.6,4.0,44,0.00,,,0.00,VWS V14.01,2013-02-21 11:27:00,
2013-02-21 06:32:00,24.3,5.5,29.50,NW,304,3.6,6.3,44,0.00,,,0.00,VWS V14.01,2013-02-21 11:32:00,
2013-02-21 06:37:00,24.3,5.5,29.50,WNW,292,3.1,3.1,44,0.00,,,0.00,VWS V14.01,2013-02-21 11:37:00,
2013-02-21 06:42:00,24.3,5.5,29.50,NW,304,5.8,5.8,44,0.00,,,0.00,VWS V14.01,2013-02-21 11:42:00,
2013-02-21 06:47:00,24.3,5.5,29.50,WNW,299,5.4,5.4,44,0.00,,,0.00,VWS V14.01,2013-02-21 11:47:00,
2013-02-21 06:52:00,24.3,5.5,29.50,WNW,294,3.6,3.6,44,0.00,,,0.00,VWS V14.01,2013-02-21 11:52:00,
2013-02-21 06:57:00,24.1,5.8,29.50,WNW,297,5.4,5.4,45,0.00,,,0.00,VWS V14.01,2013-02-21 11:57:00,
2013-02-21 07:02:00,24.1,5.8,29.50,WNW,297,4.9,4.9,45,0.00,,,0.00,VWS V14.01,2013-02-21 12:02:00,
2013-02-21 07:07:00,24.1,5.8,29.50,NW,315,4.0,4.0,45,0.00,,,0.00,VWS V14.01,2013-02-21 12:07:00,
2013-02-21 07:12:00,24.1,5.8,29.50,WNW,296,3.1,3.1,45,0.00,,,0.00,VWS V14.01,2013-02-21 12:12:00,
2013-02-21 07:17:00,24.3,6.0,29.50,WNW,297,3.1,3.1,45,0.00,,,0.00,VWS V14.01,2013-02-21 12:17:00,
2013-02-21 07:22:00,24.4,5.7,29.50,WNW,303,0.0,3.1,44,0.00,,,0.00,VWS V14.01,2013-02-21 12:22:00,
2013-02-21 07:27:00,24.4,5.7,29.50,NW,315,2.7,2.7,44,0.00,,,0.00,VWS V14.01,2013-02-21 12:27:00,
2013-02-21 07:32:00,24.6,5.8,29.50,NW,307,4.0,5.4,44,0.00,,,0.00,VWS V14.01,2013-02-21 12:32:00,
2013-02-21 07:37:00,25.3,6.5,29.50,WNW,295,4.0,4.0,44,0.00,,,0.00,VWS V14.01,2013-02-21 12:37:00,
2013-02-21 07:42:00,25.7,6.8,29.50,WNW,291,0.0,3.1,44,0.00,,,0.00,VWS V14.01,2013-02-21 12:42:00,
2013-02-21 07:47:00,25.9,7.0,29.50,West,279,5.4,13.2,44,0.00,,,0.00,VWS V14.01,2013-02-21 12:47:00,
2013-02-21 07:52:00,25.9,6.5,29.50,West,281,5.8,5.8,43,0.00,,,0.00,VWS V14.01,2013-02-21 12:52:00,
2013-02-21 07:57:00,25.7,6.3,29.50,NW,311,2.2,2.7,43,0.00,,,0.00,VWS V14.01,2013-02-21 12:57:00,
2013-02-21 08:02:00,25.7,6.3,29.50,NW,315,0.0,3.1,43,0.00,,,0.00,VWS V14.01,2013-02-21 13:02:00,
2013-02-21 08:07:00,25.7,6.3,29.50,WSW,249,4.0,4.0,43,0.00,,,0.00,VWS V14.01,2013-02-21 13:07:00,
2013-02-21 08:12:00,25.9,6.5,29.50,NNW,330,4.0,4.0,43,0.00,,,0.00,VWS V14.01,2013-02-21 13:12:00,
2013-02-21 08:17:00,25.7,6.3,29.50,NNW,337,2.7,2.7,43,0.00,,,0.00,VWS V14.01,2013-02-21 13:17:00,
2013-02-21 08:22:00,25.5,6.2,29.50,NW,305,4.0,5.4,43,0.00,,,0.00,VWS V14.01,2013-02-21 13:22:00,
2013-02-21 08:27:00,25.5,6.2,29.50,NW,307,5.4,5.4,43,0.00,,,0.00,VWS V14.01,2013-02-21 13:27:00,
2013-02-21 08:32:00,25.7,6.3,29.50,NW,304,3.1,3.6,43,0.00,,,0.00,VWS V14.01,2013-02-21 13:32:00,
2013-02-21 08:37:00,26.4,7.0,29.47,NW,324,2.7,2.7,43,0.00,,,0.00,VWS V14.01,2013-02-21 13:37:00,
2013-02-21 08:42:00,27.0,6.9,29.47,SW,222,2.7,2.7,42,0.00,,,0.00,VWS V14.01,2013-02-21 13:42:00,
2013-02-21 08:47:00,27.9,7.8,29.47,WNW,297,4.0,5.8,42,0.00,,,0.00,VWS V14.01,2013-02-21 13:47:00,
2013-02-21 08:52:00,28.6,8.4,29.50,NW,310,3.1,3.1,42,0.00,,,0.00,VWS V14.01,2013-02-21 13:52:00,
2013-02-21 08:57:00,28.8,8.0,29.50,North,0,3.6,5.8,41,0.00,,,0.00,VWS V14.01,2013-02-21 13:57:00,
2013-02-21 09:02:00,28.4,7.7,29.50,WNW,288,2.7,3.6,41,0.00,,,0.00,VWS V14.01,2013-02-21 14:02:00,
2013-02-21 09:07:00,28.4,7.7,29.50,NNW,332,5.8,5.8,41,0.00,,,0.00,VWS V14.01,2013-02-21 14:07:00,
2013-02-21 09:12:00,28.4,7.7,29.47,WNW,289,6.3,6.3,41,0.00,,,0.00,VWS V14.01,2013-02-21 14:12:00,
2013-02-21 09:17:00,28.4,7.7,29.47,West,271,6.3,6.3,41,0.00,,,0.00,VWS V14.01,2013-02-21 14:17:00,
2013-02-21 09:22:00,28.9,8.2,29.47,NW,322,3.1,3.1,41,0.00,,,0.00,VWS V14.01,2013-02-21 14:22:00,
2013-02-21 09:27:00,29.1,8.4,29.47,NW,308,0.0,4.5,41,0.00,,,0.00,VWS V14.01,2013-02-21 14:27:00,
2013-02-21 09:32:00,29.3,8.0,29.47,WSW,248,2.7,2.7,40,0.00,,,0.00,VWS V14.01,2013-02-21 14:32:00,
2013-02-21 09:37:00,29.3,8.0,29.47,North,350,3.6,3.6,40,0.00,,,0.00,VWS V14.01,2013-02-21 14:37:00,
2013-02-21 09:42:00,29.5,8.1,29.47,NNW,348,3.6,3.6,40,0.00,,,0.00,VWS V14.01,2013-02-21 14:42:00,
2013-02-21 09:47:00,29.3,8.0,29.47,West,277,3.6,3.6,40,0.00,,,0.00,VWS V14.01,2013-02-21 14:47:00,
2013-02-21 09:52:00,29.3,8.0,29.47,NNW,345,3.1,3.1,40,0.00,,,0.00,VWS V14.01,2013-02-21 14:52:00,
2013-02-21 09:57:00,28.9,7.7,29.47,West,281,7.2,7.2,40,0.00,,,0.00,VWS V14.01,2013-02-21 14:57:00,
2013-02-21 10:02:00,28.8,7.5,29.47,West,281,7.2,7.2,40,0.00,,,0.00,VWS V14.01,2013-02-21 15:02:00,
2013-02-21 10:07:00,29.1,7.8,29.47,WNW,295,6.3,6.3,40,0.00,,,0.00,VWS V14.01,2013-02-21 15:07:00,
2013-02-21 10:12:00,29.1,7.8,29.47,West,277,3.6,5.4,40,0.00,,,0.00,VWS V14.01,2013-02-21 15:12:00,
2013-02-21 10:17:00,29.1,7.8,29.47,WNW,298,3.6,3.6,40,0.00,,,0.00,VWS V14.01,2013-02-21 15:17:00,
2013-02-21 10:22:00,30.6,8.6,29.47,NW,308,4.0,4.0,39,0.00,,,0.00,VWS V14.01,2013-02-21 15:22:00,
2013-02-21 10:27:00,30.6,8.6,29.47,WSW,237,5.4,5.4,39,0.00,,,0.00,VWS V14.01,2013-02-21 15:27:00,
2013-02-21 10:32:00,30.7,8.7,29.47,West,281,3.1,3.1,39,0.00,,,0.00,VWS V14.01,2013-02-21 15:32:00,
2013-02-21 10:37:00,30.6,8.0,29.47,NW,306,3.1,3.1,38,0.00,,,0.00,VWS V14.01,2013-02-21 15:37:00,
2013-02-21 10:42:00,30.6,8.0,29.47,NNW,328,4.9,4.9,38,0.00,,,0.00,VWS V14.01,2013-02-21 15:42:00,
2013-02-21 10:47:00,30.4,8.4,29.47,WNW,300,7.2,7.2,39,0.00,,,0.00,VWS V14.01,2013-02-21 15:47:00,
2013-02-21 10:52:00,30.7,8.7,29.47,NW,311,2.7,4.0,39,0.00,,,0.00,VWS V14.01,2013-02-21 15:52:00,
2013-02-21 10:57:00,30.7,8.1,29.47,NW,315,4.0,4.0,38,0.00,,,0.00,VWS V14.01,2013-02-21 15:57:00,
2013-02-21 11:02:00,30.2,8.2,29.47,WNW,290,2.2,2.2,39,0.00,,,0.00,VWS V14.01,2013-02-21 16:02:00,
2013-02-21 11:07:00,30.2,8.2,29.47,ENE,75,3.1,3.1,39,0.00,,,0.00,VWS V14.01,2013-02-21 16:07:00,
2013-02-21 11:12:00,32.0,9.9,29.47,WNW,294,5.4,5.4,39,0.00,,,0.00,VWS V14.01,2013-02-21 16:12:00,
2013-02-21 11:17:00,32.4,10.2,29.47,SW,221,3.6,3.6,39,0.00,,,0.00,VWS V14.01,2013-02-21 16:17:00,
2013-02-21 11:22:00,32.4,10.2,29.47,WNW,303,4.9,4.9,39,0.00,,,0.00,VWS V14.01,2013-02-21 16:22:00,
2013-02-21 11:27:00,32.9,10.7,29.47,South,189,0.0,0.0,39,0.00,,,0.00,VWS V14.01,2013-02-21 16:27:00,
2013-02-21 11:32:00,33.3,10.4,29.47,WNW,302,4.0,4.0,38,0.00,,,0.00,VWS V14.01,2013-02-21 16:32:00,
2013-02-21 11:37:00,33.3,10.4,29.47,SSW,200,2.7,4.0,38,0.00,,,0.00,VWS V14.01,2013-02-21 16:37:00,
2013-02-21 11:42:00,33.8,10.9,29.47,NNW,334,4.5,4.5,38,0.00,,,0.00,VWS V14.01,2013-02-21 16:42:00,
2013-02-21 11:47:00,33.8,10.9,29.47,NW,317,3.6,3.6,38,0.00,,,0.00,VWS V14.01,2013-02-21 16:47:00,
2013-02-21 11:52:00,33.8,10.9,29.47,WNW,301,3.6,3.6,38,0.00,,,0.00,VWS V14.01,2013-02-21 16:52:00,
2013-02-21 11:57:00,33.8,10.9,29.47,West,274,5.4,5.4,38,0.00,,,0.00,VWS V14.01,2013-02-21 16:57:00,
2013-02-21 12:02:00,33.8,10.9,29.47,NNW,342,3.1,5.4,38,0.00,,,0.00,VWS V14.01,2013-02-21 17:02:00,
2013-02-21 12:07:00,33.4,10.6,29.47,West,264,2.7,2.7,38,0.00,,,0.00,VWS V14.01,2013-02-21 17:07:00,
2013-02-21 12:12:00,33.1,10.2,29.47,WNW,288,2.7,2.7,38,0.00,,,0.00,VWS V14.01,2013-02-21 17:12:00,
2013-02-21 12:17:00,33.3,10.4,29.47,West,260,6.3,6.3,38,0.00,,,0.00,VWS V14.01,2013-02-21 17:17:00,
2013-02-21 12:22:00,33.3,10.4,29.47,East,94,4.0,4.0,38,0.00,,,0.00,VWS V14.01,2013-02-21 17:22:00,
2013-02-21 12:27:00,33.3,10.4,29.47,West,273,2.7,2.7,38,0.00,,,0.00,VWS V14.01,2013-02-21 17:27:00,
2013-02-21 12:32:00,33.6,9.5,29.47,NW,307,5.4,5.4,36,0.00,,,0.00,VWS V14.01,2013-02-21 17:32:00,
2013-02-21 12:37:00,33.6,9.5,29.47,NNE,21,7.2,7.2,36,0.00,,,0.00,VWS V14.01,2013-02-21 17:37:00,
2013-02-21 12:42:00,33.6,10.7,29.47,NNE,21,7.2,7.2,38,0.00,,,0.00,VWS V14.01,2013-02-21 17:42:00,
2013-02-21 12:47:00,33.8,10.9,29.47,NW,311,2.2,2.2,38,0.00,,,0.00,VWS V14.01,2013-02-21 17:47:00,
2013-02-21 12:52:00,34.3,10.2,29.47,NNW,335,3.6,4.0,36,0.00,,,0.00,VWS V14.01,2013-02-21 17:52:00,
2013-02-21 12:57:00,34.3,10.2,29.47,WNW,290,6.3,6.3,36,0.00,,,0.00,VWS V14.01,2013-02-21 17:57:00,
2013-02-21 13:02:00,34.2,10.0,29.47,NW,304,4.0,4.0,36,0.00,,,0.00,VWS V14.01,2013-02-21 18:02:00,
2013-02-21 13:07:00,33.8,9.7,29.47,NW,304,4.0,4.0,36,0.00,,,0.00,VWS V14.01,2013-02-21 18:07:00,
2013-02-21 13:12:00,33.3,9.2,29.47,SW,230,4.9,5.4,36,0.00,,,0.00,VWS V14.01,2013-02-21 18:12:00,
2013-02-21 13:17:00,32.7,9.3,29.47,WNW,294,5.8,5.8,37,0.00,,,0.00,VWS V14.01,2013-02-21 18:17:00,
2013-02-21 13:21:00,32.7,9.3,29.47,West,261,4.0,4.0,37,0.00,,,0.00,VWS V14.01,2013-02-21 18:21:00,
2013-02-21 13:26:00,33.6,10.7,29.47,West,276,3.1,3.1,38,0.00,,,0.00,VWS V14.01,2013-02-21 18:26:00,
2013-02-21 13:31:00,33.6,10.7,29.47,NE,45,0.0,0.0,38,0.00,,,0.00,VWS V14.01,2013-02-21 18:31:00,
2013-02-21 13:36:00,35.4,11.8,29.47,WNW,295,0.0,0.0,37,0.00,,,0.00,VWS V14.01,2013-02-21 18:36:00,
2013-02-21 13:41:00,35.4,11.1,29.47,NW,313,2.7,6.3,36,0.00,,,0.00,VWS V14.01,2013-02-21 18:41:00,
2013-02-21 13:46:00,35.4,11.1,29.47,West,266,3.1,3.1,36,0.00,,,0.00,VWS V14.01,2013-02-21 18:46:00,
2013-02-21 13:51:00,35.8,11.4,29.47,West,266,3.1,3.1,36,0.00,,,0.00,VWS V14.01,2013-02-21 18:51:00,
2013-02-21 13:56:00,35.8,11.4,29.47,West,273,3.1,3.1,36,0.00,,,0.00,VWS V14.01,2013-02-21 18:56:00,
2013-02-21 14:01:00,36.3,12.6,29.47,WNW,288,0.0,0.0,37,0.00,,,0.00,VWS V14.01,2013-02-21 19:01:00,
2013-02-21 14:06:00,36.3,11.9,29.47,ENE,75,0.0,0.0,36,0.00,,,0.00,VWS V14.01,2013-02-21 19:06:00,
2013-02-21 14:11:00,36.3,11.9,29.47,NW,315,6.3,6.3,36,0.00,,,0.00,VWS V14.01,2013-02-21 19:11:00,
2013-02-21 14:16:00,36.0,11.6,29.47,NNW,327,5.8,5.8,36,0.00,,,0.00,VWS V14.01,2013-02-21 19:16:00,
2013-02-21 14:21:00,35.8,11.4,29.47,North,9,4.0,4.0,36,0.00,,,0.00,VWS V14.01,2013-02-21 19:21:00,
2013-02-21 14:26:00,35.4,10.5,29.47,North,9,4.0,4.0,35,0.00,,,0.00,VWS V14.01,2013-02-21 19:26:00,
2013-02-21 14:31:00,34.9,10.6,29.47,WSW,252,0.0,0.0,36,0.00,,,0.00,VWS V14.01,2013-02-21 19:31:00,
2013-02-21 14:36:00,34.9,10.6,29.47,East,100,4.0,4.0,36,0.00,,,0.00,VWS V14.01,2013-02-21 19:36:00,
2013-02-21 14:41:00,35.1,10.8,29.50,East,100,4.0,4.0,36,0.00,,,0.00,VWS V14.01,2013-02-21 19:41:00,
2013-02-21 14:46:00,35.1,10.8,29.50,NNW,332,2.2,2.2,36,0.00,,,0.00,VWS V14.01,2013-02-21 19:46:00,
2013-02-21 14:51:00,34.7,10.5,29.50,WSW,254,3.6,3.6,36,0.00,,,0.00,VWS V14.01,2013-02-21 19:51:00,
2013-02-21 14:56:00,34.3,10.2,29.50,NW,322,0.0,4.5,36,0.00,,,0.00,VWS V14.01,2013-02-21 19:56:00,
2013-02-21 15:01:00,34.3,10.2,29.50,SE,141,2.7,3.6,36,0.00,,,0.00,VWS V14.01,2013-02-21 20:01:00,
2013-02-21 15:07:00,34.0,10.5,29.50,West,266,3.1,3.1,37,0.00,,,0.00,VWS V14.01,2013-02-21 20:07:00,
2013-02-21 15:12:00,34.2,10.0,29.50,North,353,4.0,4.0,36,0.00,,,0.00,VWS V14.01,2013-02-21 20:12:00,
2013-02-21 15:17:00,33.8,9.7,29.50,West,275,2.7,2.7,36,0.00,,,0.00,VWS V14.01,2013-02-21 20:17:00,
2013-02-21 15:22:00,33.8,10.3,29.50,West,278,3.1,3.1,37,0.00,,,0.00,VWS V14.01,2013-02-21 20:22:00,
2013-02-21 15:27:00,33.6,10.1,29.50,West,273,0.0,0.0,37,0.00,,,0.00,VWS V14.01,2013-02-21 20:27:00,
2013-02-21 15:32:00,34.0,10.5,29.50,NW,325,5.4,5.4,37,0.00,,,0.00,VWS V14.01,2013-02-21 20:32:00,
2013-02-21 15:37:00,33.8,10.3,29.50,NNW,334,0.0,3.1,37,0.00,,,0.00,VWS V14.01,2013-02-21 20:37:00,
2013-02-21 15:42:00,33.8,10.3,29.53,West,266,2.7,2.7,37,0.00,,,0.00,VWS V14.01,2013-02-21 20:42:00,
2013-02-21 15:47:00,33.8,10.3,29.53,SSW,212,2.7,2.7,37,0.00,,,0.00,VWS V14.01,2013-02-21 20:47:00,
2013-02-21 15:51:00,33.6,10.7,29.53,SSW,212,2.7,2.7,38,0.00,,,0.00,VWS V14.01,2013-02-21 20:51:00,
2013-02-21 15:56:00,33.4,10.6,29.53,ENE,71,2.2,2.2,38,0.00,,,0.00,VWS V14.01,2013-02-21 20:56:00,
2013-02-21 16:01:00,33.3,10.4,29.53,NW,314,0.0,0.0,38,0.00,,,0.00,VWS V14.01,2013-02-21 21:01:00,
2013-02-21 16:06:00,32.7,9.9,29.53,SW,234,4.0,4.0,38,0.00,,,0.00,VWS V14.01,2013-02-21 21:06:00,
2013-02-21 16:11:00,32.5,9.8,29.53,West,264,0.0,0.0,38,0.00,,,0.00,VWS V14.01,2013-02-21 21:11:00,
2013-02-21 16:16:00,32.2,10.0,29.53,WNW,302,0.0,0.0,39,0.00,,,0.00,VWS V14.01,2013-02-21 21:16:00,
2013-02-21 16:21:00,32.0,9.3,29.53,SSE,149,0.0,0.0,38,0.00,,,0.00,VWS V14.01,2013-02-21 21:21:00,
2013-02-21 16:26:00,31.8,9.7,29.53,SSE,149,0.0,0.0,39,0.00,,,0.00,VWS V14.01,2013-02-21 21:26:00,
2013-02-21 16:31:00,31.6,9.5,29.53,NW,310,0.0,0.0,39,0.00,,,0.00,VWS V14.01,2013-02-21 21:31:00,
2013-02-21 16:36:00,31.6,9.5,29.53,SW,229,0.0,0.0,39,0.00,,,0.00,VWS V14.01,2013-02-21 21:36:00,
2013-02-21 16:41:00,32.0,9.9,29.56,West,272,0.0,0.0,39,0.00,,,0.00,VWS V14.01,2013-02-21 21:41:00,
2013-02-21 16:46:00,32.2,10.6,29.56,NW,319,2.7,2.7,40,0.00,,,0.00,VWS V14.01,2013-02-21 21:46:00,
2013-02-21 16:51:00,32.2,10.6,29.56,WSW,243,3.1,3.1,40,0.00,,,0.00,VWS V14.01,2013-02-21 21:51:00,
2013-02-21 16:56:00,32.2,10.6,29.56,ESE,105,2.7,2.7,40,0.00,,,0.00,VWS V14.01,2013-02-21 21:56:00,
2013-02-21 17:02:00,31.1,9.6,29.56,NE,48,0.0,0.0,40,0.00,,,0.00,VWS V14.01,2013-02-21 22:02:00,
2013-02-21 17:07:00,30.6,9.1,29.56,WNW,300,0.0,0.0,40,0.00,,,0.00,VWS V14.01,2013-02-21 22:07:00,
2013-02-21 17:12:00,30.2,8.8,29.59,West,267,0.0,0.0,40,0.00,,,0.00,VWS V14.01,2013-02-21 22:12:00,
2013-02-21 17:17:00,29.8,8.5,29.59,South,171,4.9,4.9,40,0.00,,,0.00,VWS V14.01,2013-02-21 22:17:00,
2013-02-21 17:22:00,29.5,8.1,29.59,North,0,0.0,3.6,40,0.00,,,0.00,VWS V14.01,2013-02-21 22:22:00,
2013-02-21 17:27:00,29.3,8.5,29.59,SSW,212,2.2,2.2,41,0.00,,,0.00,VWS V14.01,2013-02-21 22:27:00,
2013-02-21 17:32:00,28.9,8.2,29.59,NW,307,4.9,4.9,41,0.00,,,0.00,VWS V14.01,2013-02-21 22:32:00,
2013-02-21 17:37:00,28.9,8.2,29.59,SW,235,0.0,0.0,41,0.00,,,0.00,VWS V14.01,2013-02-21 22:37:00,
2013-02-21 17:42:00,28.6,7.9,29.62,North,357,3.6,3.6,41,0.00,,,0.00,VWS V14.01,2013-02-21 22:42:00,
2013-02-21 17:46:00,28.6,7.9,29.62,West,265,0.0,0.0,41,0.00,,,0.00,VWS V14.01,2013-02-21 22:46:00,
2013-02-21 17:51:00,28.4,7.7,29.62,NNE,33,2.2,2.2,41,0.00,,,0.00,VWS V14.01,2013-02-21 22:51:00,
2013-02-21 17:56:00,28.2,7.6,29.62,NNE,27,0.0,0.0,41,0.00,,,0.00,VWS V14.01,2013-02-21 22:56:00,
2013-02-21 18:01:00,28.0,7.4,29.62,WNW,300,0.0,0.0,41,0.00,,,0.00,VWS V14.01,2013-02-21 23:01:00,
2013-02-21 18:06:00,27.9,7.2,29.62,West,275,0.0,0.0,41,0.00,,,0.00,VWS V14.01,2013-02-21 23:06:00,
2013-02-21 18:11:00,27.9,7.2,29.65,West,271,0.0,3.1,41,0.00,,,0.00,VWS V14.01,2013-02-21 23:11:00,
2013-02-21 18:16:00,27.9,7.8,29.65,West,271,0.0,0.0,42,0.00,,,0.00,VWS V14.01,2013-02-21 23:16:00,
2013-02-21 18:21:00,27.9,7.8,29.65,East,81,0.0,0.0,42,0.00,,,0.00,VWS V14.01,2013-02-21 23:21:00,
2013-02-21 18:26:00,27.7,7.6,29.65,North,1,0.0,0.0,42,0.00,,,0.00,VWS V14.01,2013-02-21 23:26:00,
2013-02-21 18:31:00,27.7,7.6,29.65,ENE,69,3.6,3.6,42,0.00,,,0.00,VWS V14.01,2013-02-21 23:31:00,
2013-02-21 18:36:00,27.7,7.6,29.68,NNW,331,2.7,2.7,42,0.00,,,0.00,VWS V14.01,2013-02-21 23:36:00,
2013-02-21 18:41:00,27.5,7.4,29.68,NW,307,0.0,0.0,42,0.00,,,0.00,VWS V14.01,2013-02-21 23:41:00,
2013-02-21 18:46:00,27.3,7.3,29.68,WNW,289,0.0,0.0,42,0.00,,,0.00,VWS V14.01,2013-02-21 23:46:00,
2013-02-21 18:51:00,27.3,7.3,29.68,WNW,283,2.7,2.7,42,0.00,,,0.00,VWS V14.01,2013-02-21 23:51:00,
2013-02-21 18:56:00,27.3,7.3,29.68,WNW,296,0.0,0.0,42,0.00,,,0.00,VWS V14.01,2013-02-21 23:56:00,
2013-02-21 19:01:00,27.1,7.1,29.68,WNW,286,2.2,2.2,42,0.00,,,0.00,VWS V14.01,2013-02-22 00:01:00,
2013-02-21 19:06:00,27.1,7.6,29.68,SE,137,0.0,0.0,43,0.00,,,0.00,VWS V14.01,2013-02-22 00:06:00,
2013-02-21 19:11:00,27.1,7.6,29.68,South,181,0.0,0.0,43,0.00,,,0.00,VWS V14.01,2013-02-22 00:11:00,
2013-02-21 19:16:00,27.0,7.5,29.68,East,82,0.0,0.0,43,0.00,,,0.00,VWS V14.01,2013-02-22 00:16:00,
2013-02-21 19:21:00,27.0,7.5,29.68,SSE,151,0.0,0.0,43,0.00,,,0.00,VWS V14.01,2013-02-22 00:21:00,
2013-02-21 19:26:00,27.0,7.5,29.68,South,177,0.0,0.0,43,0.00,,,0.00,VWS V14.01,2013-02-22 00:26:00,
2013-02-21 19:31:00,27.0,7.5,29.68,SW,236,2.2,2.2,43,0.00,,,0.00,VWS V14.01,2013-02-22 00:31:00,
2013-02-21 19:36:00,27.0,7.5,29.68,NNW,331,2.7,2.7,43,0.00,,,0.00,VWS V14.01,2013-02-22 00:36:00,
2013-02-21 19:41:00,26.8,7.3,29.68,West,261,5.4,5.4,43,0.00,,,0.00,VWS V14.01,2013-02-22 00:41:00,
2013-02-21 19:46:00,26.8,7.3,29.71,SE,137,2.7,2.7,43,0.00,,,0.00,VWS V14.01,2013-02-22 00:46:00,
2013-02-21 19:51:00,26.8,7.3,29.71,WNW,291,0.0,0.0,43,0.00,,,0.00,VWS V14.01,2013-02-22 00:51:00,
2013-02-21 19:56:00,26.8,7.8,29.71,WNW,291,0.0,0.0,44,0.00,,,0.00,VWS V14.01,2013-02-22 00:56:00,
2013-02-21 20:01:00,26.6,7.6,29.71,NW,322,0.0,0.0,44,0.00,,,0.00,VWS V14.01,2013-02-22 01:01:00,
2013-02-21 20:06:00,26.6,7.6,29.71,NW,304,0.0,0.0,44,0.00,,,0.00,VWS V14.01,2013-02-22 01:06:00,
2013-02-21 20:11:00,26.6,7.6,29.71,SE,129,0.0,0.0,44,0.00,,,0.00,VWS V14.01,2013-02-22 01:11:00,
2013-02-21 20:16:00,26.2,7.8,29.71,SE,129,0.0,0.0,45,0.00,,,0.00,VWS V14.01,2013-02-22 01:16:00,
2013-02-21 20:21:00,26.2,7.8,29.71,NNW,329,2.7,2.7,45,0.00,,,0.00,VWS V14.01,2013-02-22 01:21:00,
2013-02-21 20:26:00,26.4,8.0,29.71,NW,305,0.0,0.0,45,0.00,,,0.00,VWS V14.01,2013-02-22 01:26:00,
2013-02-21 20:31:00,26.4,8.0,29.71,East,100,5.4,5.4,45,0.00,,,0.00,VWS V14.01,2013-02-22 01:31:00,
2013-02-21 20:36:00,26.4,8.0,29.71,West,271,0.0,0.0,45,0.00,,,0.00,VWS V14.01,2013-02-22 01:36:00,
2013-02-21 20:41:00,26.4,8.0,29.74,West,271,0.0,0.0,45,0.00,,,0.00,VWS V14.01,2013-02-22 01:41:00,
2013-02-21 20:46:00,26.4,8.0,29.74,West,271,0.0,0.0,45,0.00,,,0.00,VWS V14.01,2013-02-22 01:46:00,
2013-02-21 20:51:00,26.1,7.6,29.74,NW,322,0.0,2.2,45,0.00,,,0.00,VWS V14.01,2013-02-22 01:51:00,
2013-02-21 20:56:00,26.1,7.6,29.74,West,270,0.0,0.0,45,0.00,,,0.00,VWS V14.01,2013-02-22 01:56:00,
2013-02-21 21:01:00,26.1,8.1,29.74,North,357,0.0,0.0,46,0.00,,,0.00,VWS V14.01,2013-02-22 02:01:00,
2013-02-21 21:06:00,26.1,8.1,29.74,East,95,0.0,0.0,46,0.00,,,0.00,VWS V14.01,2013-02-22 02:06:00,
2013-02-21 21:11:00,26.1,8.1,29.74,ESE,121,0.0,0.0,46,0.00,,,0.00,VWS V14.01,2013-02-22 02:11:00,
2013-02-21 21:16:00,26.1,8.6,29.74,ENE,73,0.0,0.0,47,0.00,,,0.00,VWS V14.01,2013-02-22 02:16:00,
2013-02-21 21:21:00,26.1,8.6,29.74,SW,231,0.0,0.0,47,0.00,,,0.00,VWS V14.01,2013-02-22 02:21:00,
2013-02-21 21:26:00,26.1,8.6,29.77,SW,231,0.0,0.0,47,0.00,,,0.00,VWS V14.01,2013-02-22 02:26:00,
2013-02-21 21:31:00,25.9,8.4,29.77,SW,231,0.0,0.0,47,0.00,,,0.00,VWS V14.01,2013-02-22 02:31:00,
2013-02-21 21:36:00,25.7,8.3,29.77,SE,145,0.0,0.0,47,0.00,,,0.00,VWS V14.01,2013-02-22 02:36:00,
2013-02-21 21:41:00,25.7,8.3,29.77,NE,37,0.0,0.0,47,0.00,,,0.00,VWS V14.01,2013-02-22 02:41:00,
2013-02-21 21:46:00,25.7,8.3,29.77,NE,38,0.0,0.0,47,0.00,,,0.00,VWS V14.01,2013-02-22 02:46:00,
2013-02-21 21:51:00,25.3,8.4,29.77,NE,34,0.0,0.0,48,0.00,,,0.00,VWS V14.01,2013-02-22 02:51:00,
2013-02-21 21:56:00,25.3,8.4,29.77,NNE,22,0.0,0.0,48,0.00,,,0.00,VWS V14.01,2013-02-22 02:56:00,
2013-02-21 22:01:00,25.5,8.6,29.77,NNW,332,0.0,0.0,48,0.00,,,0.00,VWS V14.01,2013-02-22 03:01:00,
2013-02-21 22:06:00,25.5,8.6,29.77,NNE,17,0.0,0.0,48,0.00,,,0.00,VWS V14.01,2013-02-22 03:06:00,
2013-02-21 22:11:00,25.5,8.6,29.77,NW,307,0.0,0.0,48,0.00,,,0.00,VWS V14.01,2013-02-22 03:11:00,
2013-02-21 22:16:00,25.5,8.6,29.77,NW,307,0.0,0.0,48,0.00,,,0.00,VWS V14.01,2013-02-22 03:16:00,
2013-02-21 22:21:00,25.3,8.9,29.77,West,275,0.0,0.0,49,0.00,,,0.00,VWS V14.01,2013-02-22 03:21:00,
2013-02-21 22:26:00,25.2,8.7,29.80,West,275,0.0,0.0,49,0.00,,,0.00,VWS V14.01,2013-02-22 03:26:00,
2013-02-21 22:31:00,25.0,8.5,29.80,East,89,0.0,0.0,49,0.00,,,0.00,VWS V14.01,2013-02-22 03:31:00,
2013-02-21 22:36:00,24.8,8.8,29.80,NW,311,0.0,0.0,50,0.00,,,0.00,VWS V14.01,2013-02-22 03:36:00,
2013-02-21 22:41:00,25.0,9.4,29.80,NW,315,0.0,0.0,51,0.00,,,0.00,VWS V14.01,2013-02-22 03:41:00,
2013-02-21 22:46:00,25.0,9.4,29.80,ESE,123,0.0,0.0,51,0.00,,,0.00,VWS V14.01,2013-02-22 03:46:00,
2013-02-21 22:51:00,25.2,9.6,29.80,WNW,303,0.0,0.0,51,0.00,,,0.00,VWS V14.01,2013-02-22 03:51:00,
2013-02-21 22:56:00,25.0,9.9,29.80,WNW,303,0.0,0.0,52,0.00,,,0.00,VWS V14.01,2013-02-22 03:56:00,
2013-02-21 23:01:00,25.0,9.9,29.80,WNW,303,0.0,0.0,52,0.00,,,0.00,VWS V14.01,2013-02-22 04:01:00,
2013-02-21 23:06:00,25.0,9.9,29.80,WNW,298,0.0,0.0,52,0.00,,,0.00,VWS V14.01,2013-02-22 04:06:00,
2013-02-21 23:11:00,24.8,9.7,29.80,WNW,298,0.0,0.0,52,0.00,,,0.00,VWS V14.01,2013-02-22 04:11:00,
2013-02-21 23:16:00,24.8,9.7,29.80,SW,221,0.0,0.0,52,0.00,,,0.00,VWS V14.01,2013-02-22 04:16:00,
2013-02-21 23:21:00,24.8,9.7,29.80,WNW,288,0.0,0.0,52,0.00,,,0.00,VWS V14.01,2013-02-22 04:21:00,
2013-02-21 23:26:00,24.6,9.5,29.83,WNW,288,0.0,0.0,52,0.00,,,0.00,VWS V14.01,2013-02-22 04:26:00,
2013-02-21 23:31:00,24.6,9.5,29.83,West,262,0.0,0.0,52,0.00,,,0.00,VWS V14.01,2013-02-22 04:31:00,
2013-02-21 23:36:00,24.6,9.5,29.83,West,262,0.0,0.0,52,0.00,,,0.00,VWS V14.01,2013-02-22 04:36:00,
2013-02-21 23:41:00,24.6,9.9,29.83,West,263,0.0,0.0,53,0.00,,,0.00,VWS V14.01,2013-02-22 04:41:00,
2013-02-21 23:46:00,24.8,10.5,29.83,NW,319,0.0,0.0,54,0.00,,,0.00,VWS V14.01,2013-02-22 04:46:00,
2013-02-21 23:51:00,24.8,10.5,29.83,NW,319,0.0,0.0,54,0.00,,,0.00,VWS V14.01,2013-02-22 04:51:00,
2013-02-21 23:56:00,24.8,10.5,29.85,NW,319,0.0,0.0,54,0.00,,,0.00,VWS V14.01,2013-02-22 04:56:00,